This is the latest recevied weather packets stored in our database for station/object K7SKM. If no packets are shown the sender has not sent any weather packets the latest 10 day(s).
| Time | Temp. | Humidity | Pressure | Rain* | Wind** | Luminosity | Snow |
|---|---|---|---|---|---|---|---|
| 1788485749 | 12.22° C | 91% | 1014.7 hPa | 5.33 mm | - | 10 W/m² | - |
| 1788485445 | 12.22° C | 90% | 1014.9 hPa | 5.33 mm | - | 10 W/m² | - |
| 1788485145 | 12.22° C | 90% | 1014.9 hPa | 3.56 mm | - | 10 W/m² | - |
| 1788484844 | 12.22° C | 89% | 1015 hPa | 5.33 mm | - | 8 W/m² | - |
| 1788484538 | 12.78° C | 89% | 1014.9 hPa | 5.33 mm | - | 6 W/m² | - |
| 1788484258 | 12.78° C | 89% | 1015 hPa | 3.56 mm | - | 5 W/m² | - |
| 1788483930 | 12.78° C | 88% | 1014.9 hPa | 5.33 mm | - | 5 W/m² | - |
| 1788483626 | 12.78° C | 87% | 1014.7 hPa | 8.89 mm | - | 7 W/m² | - |
| 1788483326 | 12.78° C | 87% | 1014.8 hPa | 10.67 mm | - | 10 W/m² | - |
| 1788483021 | 13.33° C | 86% | 1014.7 hPa | 16.26 mm | - | 18 W/m² | - |
| 1788482717 | 13.33° C | 85% | 1014.5 hPa | 18.03 mm | - | 22 W/m² | - |
| 1788482417 | 13.33° C | 85% | 1014.6 hPa | 8.89 mm | - | 21 W/m² | - |
| 1788482113 | 13.89° C | 84% | 1014.6 hPa | 3.56 mm | - | 19 W/m² | - |
| 1788481808 | 13.89° C | 82% | 1014.6 hPa | 1.78 mm | - | 21 W/m² | - |
| 1788481504 | 13.89° C | 80% | 1014.8 hPa | 3.56 mm | - | 21 W/m² | - |
| 1788481203 | 14.44° C | 80% | 1014.5 hPa | 5.33 mm | - | 20 W/m² | - |
| 1788480899 | 15° C | 79% | 1014.5 hPa | 3.56 mm | - | 17 W/m² | - |
| 1788480593 | 15.56° C | 76% | 1014.3 hPa | 5.33 mm | - | 12 W/m² | - |
| 1788480292 | 17.22° C | 70% | 1014.3 hPa | 3.56 mm | - | 11 W/m² | - |
| 1788479988 | 18.33° C | 65% | 1014.2 hPa | 0 mm | - | 13 W/m² | - |
| 1788479684 | 19.44° C | 54% | 1014.2 hPa | 0 mm | - | 21 W/m² | - |
| 1788479378 | 19.44° C | 53% | 1014 hPa | 0 mm | - | 31 W/m² | - |
| 1788479074 | 19.44° C | 52% | 1014 hPa | 0 mm | - | 54 W/m² | - |
| 1788478770 | 20° C | 52% | 1014 hPa | 0 mm | - | 73 W/m² | - |
| 1788478465 | 19.44° C | 52% | 1013.7 hPa | 0 mm | - | 100 W/m² | - |
* Rain latest hour (hover to see other rain measurements)
** Current wind speed in m/s (hover to see current wind gust speed)